N8WEL Weather Reports


Display with metric or nautical units.
time (UTC)temp
F
wind
direction
speed
MPH
gust
MPH
rain 1hr
in
rain 24hr
in
rain mn
in
humidity
%
barometer
mb
20260508154729 64 0 0.0 8.0 0.00 0.00 0.00 49 1012.5
20260508152955 52 0 0.0 0.0 0.00 0.00 0.00 61 1013.2
20260508152950 0 0.0 0.0 0.00 0.00 0.00 1013.3
20260508120228 47 0 0.0 0.0 0.00 0.00 0.00 67 1013.1
20260508010438 49 0 0.0 0.0 0.00 0.00 0.00 63 1013.1
20260508005900 50 0 0.0 0.0 0.00 0.00 0.00 61 1012.0
20260508005401 50 0 0.0 0.0 0.00 0.00 0.00 59 1012.1
20260508004900 51 0 0.0 0.0 0.00 0.00 0.00 56 1012.1
20260508004407 52 0 0.0 0.0 0.00 0.00 0.00 53 1012.1
20260508003435 54 0 0.0 0.0 0.00 0.00 0.00 48 1012.2
20260508002935 54 0 0.0 0.0 0.00 0.00 0.00 46 1011.9
20260508002648 54 0 0.0 0.0 0.00 0.00 0.00 44 1011.9
20260508002646 55 0 0.0 0.0 0.00 0.00 0.00 42 1011.9
20260508000550 56 0 0.0 2.0 0.00 0.00 0.00 42 1011.9
20260508000412 56 0 0.0 6.0 0.00 0.00 0.00 41 1011.8
20260507235435 56 0 0.0 6.0 0.00 0.00 0.00 41 1012.7
20260507234935 56 0 0.0 3.0 0.00 0.00 0.00 41 1012.7
20260507234435 57 0 0.0 0.0 0.00 0.00 0.00 40 1012.7
20260507233133 57 0 0.0 0.0 0.00 0.00 0.00 40 1012.6
20260507232633 58 0 0.0 7.0 0.00 0.00 0.00 39 1012.6
20260507232133 58 0 0.0 7.0 0.00 0.00 0.00 39 1012.6
20260507231633 59 0 0.0 5.0 0.00 0.00 0.00 39 1012.7
20260507231133 58 0 0.0 5.0 0.00 0.00 0.00 39 1012.7
20260507230633 58 0 0.0 0.0 0.00 0.00 0.00 39 1012.7
20260507230133 58 0 0.0 7.0 0.00 0.00 0.00 38 1012.7
20260507225633 59 0 0.0 7.0 0.00 0.00 0.00 36 1012.7
20260507225133 59 0 0.0 8.0 0.00 0.00 0.00 36 1012.6
20260507224633 59 0 0.0 8.0 0.00 0.00 0.00 35 1012.6
20260507224133 60 0 0.0 5.0 0.00 0.00 0.00 36 1011.7
20260507223633 59 0 0.0 6.0 0.00 0.00 0.00 36 1011.7
20260507223133 60 234 1.0 6.0 0.00 0.00 0.00 35 1011.8
20260507222633 60 0 0.0 6.0 0.00 0.00 0.00 36 1011.8
20260507221132 60 280 1.0 6.0 0.00 0.00 0.00 36 1011.9
20260507220632 60 282 1.0 6.0 0.00 0.00 0.00 36 1012.0
20260507220132 60 0 0.0 8.0 0.00 0.00 0.00 37 1012.1
20260507215632 59 0 0.0 8.0 0.00 0.00 0.00 38 1012.1
20260507215132 59 0 0.0 0.0 0.00 0.00 0.00 38 1012.1
20260507214632 59 0 0.0 0.0 0.00 0.00 0.00 38 1012.1
20260507214132 59 0 0.0 8.0 0.00 0.00 0.00 39 1012.0
20260507213632 58 0 0.0 11.0 0.00 0.00 0.00 40 1012.1
20260507213132 57 0 0.0 11.0 0.00 0.00 0.00 39 1012.0
20260507212632 58 0 0.0 12.0 0.00 0.00 0.00 39 1012.0
20260507212132 58 0 0.0 12.0 0.00 0.00 0.00 37 1011.9
20260507211632 59 0 0.0 11.0 0.00 0.00 0.00 37 1012.0
20260507211132 59 299 2.0 11.0 0.00 0.00 0.00 38 1012.0
20260507210227 59 0 0.0 13.0 0.00 0.00 0.00 37 1011.8
20260507205729 59 251 2.0 13.0 0.00 0.00 0.00 37 1012.0
20260507205227 59 292 2.0 11.0 0.00 0.00 0.00 37 1011.8
20260507204727 59 286 2.0 8.0 0.00 0.00 0.00 37 1011.9
20260507204227 59 281 2.0 9.0 0.00 0.00 0.00 37 1011.9
20260507203727 59 297 2.0 10.0 0.00 0.00 0.00 37 1011.8
20260507203227 58 284 2.0 10.0 0.00 0.00 0.00 37 1011.8
20260507202727 58 283 1.0 13.0 0.00 0.00 0.00 38 1011.8
20260507202227 59 263 4.0 13.0 0.00 0.00 0.00 37 1011.9
20260507201727 59 289 3.0 10.0 0.00 0.00 0.00 37 1011.8
20260507201227 58 305 3.0 8.0 0.00 0.00 0.00 40 1011.6
20260507200433 58 268 3.0 14.0 0.00 0.00 0.00 39 1011.7
20260507195933 57 288 1.0 14.0 0.00 0.00 0.00 40 1011.8
20260507195432 57 0 0.0 14.0 0.00 0.00 0.00 40 1012.1
20260507194932 57 307 2.0 14.0 0.00 0.00 0.00 40 1012.2
20260507194432 58 284 3.0 13.0 0.00 0.00 0.00 38 1012.1
20260507193656 58 290 3.0 11.0 0.00 0.00 0.00 40 1012.0
20260507192656 58 0 0.0 10.0 0.00 0.00 0.00 42 1012.0
20260507192156 58 250 3.0 15.0 0.00 0.00 0.00 40 1012.1
20260507191656 58 297 3.0 15.0 0.00 0.00 0.00 40 1012.2
20260507191156 58 256 5.0 13.0 0.00 0.00 0.00 41 1012.1